Regional Weather Roundup
Issued by NWS

Home | Current Version | Previous Version | Graphics & Text | Print | Product List | Glossary On
Versions: 1 2 3 4 5 6 7 8 9 10 11 12 13 14 15 16 17 18 19 20 21 22 23 24 25 26 27 28 29 30 31 32 33 34 35 36 37 38 39 40 41 42 43 44 45 46 47 48 49 50
000
ASUS43 KLOT 271008
RWRIL

ILLINOIS REGIONAL WEATHER ROUNDUP
NATIONAL WEATHER SERVICE CHICAGO/ROMEOVILLE IL
500 AM CDT WED MAY 27 2015

NOTE: "FAIR" INDICATES FEW OR NO CLOUDS BELOW 12,000 FEET WITH NO
SIGNIFICANT WEATHER AND/OR OBSTRUCTIONS TO VISIBILITY.

* THESE STATIONS ARE NOT UNDER NWS QUALITY CONTROL. THEY ALSO MAY NOT
  REPORT WEATHER SUCH AS PRECIPITATION OR FOG.

ILZ001-002-007-009-015-016-024-271100-
NORTHWEST ILLINOIS

CITY           SKY/WX    TMP DP  RH WIND       PRES   REMARKS
MOLINE         CLEAR     62  58  86 W8        29.90R
STERLING*      CLOUDY    63  59  88 SW9       29.90R
SAVANNA*       CLOUDY    64  60  88 SW9       29.88R
$$

ILZ003-004-008-010-011-017-018-271100-
NORTH CENTRAL ILLINOIS

CITY           SKY/WX    TMP DP  RH WIND       PRES   REMARKS
ROCKFORD       CLOUDY    64  60  87 SW10      29.88R
FREEPORT*      CLOUDY    61  60  95 SW9       29.89R
ROCHELLE*      CLOUDY    61  60  95 SW12      29.90R
DE KALB*       CLEAR     60  58  94 SW14      29.90R
PERU*          PTCLDY    64  61  89 SW10      29.92R
$$

ILZ005-006-012>014-019>023-271100-
NORTHEAST ILLINOIS

CITY           SKY/WX    TMP DP  RH WIND       PRES   REMARKS
CHICAGO-OHARE  PTCLDY    65  60  84 SW12      29.87R
CHICAGO-MIDWAY MOCLDY    68  62  81 SW12      29.89R
AURORA         PTCLDY    64  59  83 SW14      29.90R
LANSING*       CLEAR     65  59  79 SW13      29.91R
JOLIET*        MOCLDY    66  63  89 SW3       29.90R
WAUKEGAN       MOCLDY    63  61  93 SW9       29.85R
DUPAGE AIRPORT PTCLDY    64  60  87 SW16      29.88R
KANKAKEE*      PTCLDY    64  61  91 SW13      29.94R
WHEELING       MOCLDY    65  61  87 SW8       29.88R
MORRIS*        PTCLDY    65  61  87 W12G17    29.89R
ROMEOVILLE*    PTCLDY    65  60  86 SW12      29.90R
NORTHERLY ISL    N/A     67  60  78 S7          N/A
$$

LMZ740>746-271100-
SOUTHERN LAKE MICHIGAN

STATION/POSITION SKY/WX   TEMP    WIND        PRES    VSBY  WAVE
                          AIR SEA DIR/SP/G                  HT/PER
                          (F)     (DEG/KT/KT) (MB)    (MI)  (FT/S)
SOUTHERN BUOY              46 38  200/ 12/ 14 1011.2R         1/ 4
HARRISON CRIB              67     210/ 19/ 23   N/A
BURNHAM HARBOR             67     220/  3/ 11   N/A
CALUMET HARBOR             67     200/  9/ 13   N/A
BURNS HARBOR               68     210/ 18/ 25 1012.5R
MICHIGAN CITY              68     190/ 19/ 24   N/A
MICHIGAN CITY 6N           62 52  220/ 14/ 17   N/A           2/ 3
ST. JOSEPH                 60 55  230/ 12/ 12   N/A           2/ 4
$$

ILZ025>027-034>036-040-047-049-050-058-095>099-271100-
WEST-CENTRAL ILLINOIS

CITY           SKY/WX    TMP DP  RH WIND       PRES   REMARKS
QUINCY         CLOUDY    65  62  90 SW6       29.96R
GALESBURG*     CLOUDY    61  59  92 SW8       29.94R
MACOMB*        CLOUDY    64  62  93 W6        29.97R
JACKSONVILLE*  MOCLDY    67  64  87 S6        29.97R
PITTSFIELD*    MOCLDY    65  62  89 S3        29.98R
$$

ILZ028>032-037-038-041>044-048-051>054-059>061-271100-
CENTRAL ILLINOIS

CITY           SKY/WX    TMP DP  RH WIND       PRES   REMARKS
PONTIAC        MOCLDY    67  63  88 SW14      29.94R
BLOOMINGTON    MOCLDY    65  63  93 SW12      29.97R
DECATUR        MOCLDY    66  61  84 SW10      29.98R
PEORIA         MOCLDY    67  62  84 SW7       29.94R
LACON*         PTCLDY    64  61  91 SW3       29.92R
LINCOLN*       CLOUDY    68  62  82 SW5       29.94R
SPRINGFIELD    MOCLDY    68  63  84 SW9       29.97R
TAYLORVILLE    PTCLDY    63  61  94 SW8       29.99R
$$

ILZ033-039-045-046-055>057-062-063-271100-
EAST-CENTRAL ILLINOIS

CITY           SKY/WX    TMP DP  RH WIND       PRES   REMARKS
CHAMPAIGN      PTCLDY    65  61  87 S10       29.99R
DANVILLE*      CLEAR     65  61  88 SW14      29.96R
RANTOUL*       MOCLDY    67  63  85 SW10      29.97R
MATTOON        CLEAR     66  62  87 S10       30.00R
PARIS*         CLEAR     66  63  89 SW12      30.02R
$$

ILZ079-100>102-271100-
SOUTHWEST ILLINOIS

CITY           SKY/WX    TMP DP  RH WIND       PRES   REMARKS
ALTON          MOCLDY    67  67 100 S8        30.01R
BELLEVILLE     MOCLDY    66  65  99 S6        30.00R
CAHOKIA*       CLOUDY    70  63  78 SW7       30.00R
SPARTA*        MOCLDY    67  64  88 S8        30.03S
$$

ILZ064>066-069>071-074>076-080>082-084>086-088>090-092>094-271100-
SOUTH-CENTRAL ILLINOIS

CITY           SKY/WX    TMP DP  RH WIND       PRES   REMARKS
CARBONDALE     MOCLDY    65  62  90 S5        30.04R
CAIRO*         CLEAR     64  63  96 S3        30.06R
EFFINGHAM*     PTCLDY    65  61  87 S6        30.04R
MARION         MOCLDY    64  63  94 CALM      30.06R
MT. VERNON     PTCLDY    64  59  82 S6        30.05R
CENTRALIA*     PTCLDY    64  61  90 S6        30.04R
SALEM*         PTCLDY    67  63  86 S7        30.03R
METROPOLIS*    CLEAR     64  64 100 CALM      30.06S FOG
$$

ILZ067-068-072-073-078-083-087-091-271100-
SOUTHEAST ILLINOIS

CITY           SKY/WX    TMP DP  RH WIND       PRES   REMARKS
LAWRENCEVILLE  CLEAR     63  60  90 S5        30.06R
FLORA*         CLEAR     64  61  91 S6        30.04R
FAIRFIELD*     CLEAR     64  62  93 S3        30.04R
HARRISBURG*    CLEAR     64  63  98 S3        30.06R
ROBINSON*      PTCLDY    65  62  89 SW9       30.05R
CARMI*         CLEAR     61  57  88 S5        30.05R
$$

ABBREVIATIONS USED IN REMARKS
   TC - TEMPERATURE IN CELSIUS
  WCI - WIND CHILL INDEX
   HX - HEAT INDEX
  VSB - VISIBILITY
$$



USA.gov is the U.S. government's official web portal to all federal, state and local government web resources and services.